Weather History for KCVG - April, 2015

Change the Weather History Date:

Saturday, April 4, 2015

  Actual Average Record
Temperature  
Mean Temperature 44 °F 50 °F  
Max Temperature 54 °F 61 °F 82 °F (1882)
Min Temperature 33 °F 40 °F 25 °F (1964)
Degree Days  
Heating Degree Days 21 15  
Month to date heating degree days 52 62  
Since 1 July heating degree days 4984 4555  
Cooling Degree Days 0 0  
Month to date cooling degree days 0 0  
Year to date cooling degree days 0 0  
Moisture  
Dew Point 28 °F    
Average Humidity 58    
Maximum Humidity 83    
Minimum Humidity 32    
Precipitation  
Precipitation 0.00 in 0.12 in 1.47 in (1957)
Month to date precipitation 2.19 0.50  
Year to date precipitation 12.66 10.27  
Snow  
Snow 0.00 in 0.10 in 1.60 in (1992)
Month to date snowfall 0.0 0.2  
Since 1 July snowfall 29.9 21.8  
Snow Depth 0.00 in    
Sea Level Pressure  
Sea Level Pressure 30.26 in    
Wind  
Wind Speed 8 mph (WNW)    
Max Wind Speed 14 mph    
Max Gust Speed 20 mph    
Visibility 10 miles    
Events      
T = Trace of Precipitation, MM = Missing Value Source: NWS Daily Summary

Daily Weather History Graph

Daily Weather History Graph

Search for Another Location

Airport or City:

Trip Planner

Search our weather history database for the weather conditions in past years. The results will help you decide how hot, cold, wet, or windy it might be!

Date:

Astronomy

Apr. 04, 2015 Rise Set
Actual Time 7:18 AM EDT 8:05 PM EDT
Civil Twilight 6:51 AM EDT 8:32 PM EDT
Nautical Twilight 6:19 AM EDT 9:04 PM EDT
Astronomical Twilight 5:47 AM EDT 9:37 PM EDT
Moon 8:28 PM EDT (4/4) 7:23 AM EDT (4/4)
Length of Visible Light 13h 40m
Length of Day
12h 46m
Full, 100% of the Moon is Illuminated
Apr 4
Full
Apr 11
Last Quarter
Apr 18
New
Apr 25
First Quarter
May 3
Full

Hourly Weather History & Observations

Time (EDT) Temp. Windchill Dew Point Humidity Pressure Visibility Wind Dir Wind Speed Gust Speed Precip Events Conditions
12:34 AM 44.6 °F 38.8 °F 39.2 °F 81% 30.06 in 10.0 mi WNW 11.5 mph - N/A   Mostly Cloudy
12:52 AM 45.0 °F 39.7 °F 39.9 °F 82% 30.07 in 10.0 mi NW 10.4 mph - N/A   Partly Cloudy
1:52 AM 44.1 °F 37.7 °F 36.0 °F 73% 30.09 in 10.0 mi NW 12.7 mph - N/A   Mostly Cloudy
2:52 AM 42.1 °F 33.9 °F 32.0 °F 67% 30.13 in 10.0 mi NNW 17.3 mph - N/A   Mostly Cloudy
3:52 AM 37.9 °F 28.9 °F 28.9 °F 70% 30.17 in 10.0 mi NNW 16.1 mph - N/A   Partly Cloudy
4:52 AM 35.6 °F 27.1 °F 26.6 °F 70% 30.21 in 10.0 mi NW 12.7 mph - N/A   Clear
5:52 AM 35.1 °F 26.4 °F 25.0 °F 67% 30.24 in 10.0 mi NW 12.7 mph - N/A   Clear
6:52 AM 34.0 °F 28.0 °F 25.0 °F 70% 30.27 in 10.0 mi NW 6.9 mph - N/A   Clear
7:52 AM 33.1 °F 28.7 °F 25.0 °F 72% 30.30 in 10.0 mi NNW 4.6 mph - N/A   Clear
8:52 AM 36.0 °F 28.0 °F 25.0 °F 64% 30.32 in 10.0 mi NNW 11.5 mph - N/A   Clear
9:52 AM 37.9 °F 32.1 °F 25.0 °F 60% 30.34 in 10.0 mi NNW 8.1 mph - N/A   Clear
10:52 AM 41.0 °F 37.1 °F 26.1 °F 55% 30.36 in 10.0 mi NW 5.8 mph - N/A   Clear
11:52 AM 42.1 °F 37.7 °F 26.1 °F 53% 30.35 in 10.0 mi Variable 6.9 mph - N/A   Clear
12:52 PM 45.0 °F 41.2 °F 27.0 °F 49% 30.34 in 10.0 mi West 6.9 mph - N/A   Clear
1:52 PM 48.0 °F - 28.0 °F 46% 30.34 in 10.0 mi SW 10.4 mph - N/A   Clear
2:52 PM 50.0 °F - 26.1 °F 39% 30.32 in 10.0 mi Variable 5.8 mph - N/A   Clear
3:52 PM 52.0 °F - 27.0 °F 38% 30.30 in 10.0 mi West 8.1 mph - N/A   Clear
4:52 PM 53.1 °F - 25.0 °F 34% 30.29 in 10.0 mi SW 6.9 mph 16.1 mph N/A   Clear
5:52 PM 53.1 °F - 25.0 °F 34% 30.28 in 10.0 mi WSW 10.4 mph - N/A   Clear
6:52 PM 53.1 °F - 26.1 °F 35% 30.27 in 10.0 mi West 9.2 mph - N/A   Clear
7:52 PM 50.0 °F - 26.1 °F 39% 30.27 in 10.0 mi SW 5.8 mph - N/A   Clear
8:52 PM 48.0 °F - 26.1 °F 42% 30.27 in 10.0 mi SSW 3.5 mph - N/A   Clear
9:52 PM 43.0 °F 41.3 °F 27.0 °F 53% 30.30 in 10.0 mi SSW 3.5 mph - N/A   Clear
10:52 PM 45.0 °F 41.8 °F 27.0 °F 49% 30.30 in 10.0 mi SW 5.8 mph - N/A   Clear
11:52 PM 39.0 °F 34.8 °F 28.0 °F 65% 30.30 in 10.0 mi SSW 5.8 mph - N/A   Clear